Beckley, WV

4:14 PM EDT on September 21, 2017 (GMT -0400)
Raleigh County Memorial

Weather History for KBKW - September, 2012

Change the Weather History Date:

Friday, September 28, 2012

  Actual Average Record
Temperature  
Mean Temperature 61 °F 59 °F  
Max Temperature 63 °F 69 °F 88 °F (1939)
Min Temperature 58 °F 49 °F 30 °F (1909)
Degree Days  
Heating Degree Days 4 7  
Month to date heating degree days 94 98  
Since 1 July heating degree days 97 119  
Cooling Degree Days 0 1  
Month to date cooling degree days 75 57  
Year to date cooling degree days 758 550  
Growing Degree Days 12 (Base 50)    
Moisture  
Dew Point 59 °F    
Average Humidity 94    
Maximum Humidity 97    
Minimum Humidity 90    
Precipitation  
Precipitation 0.64 in 0.10 in 3.35 in (1916)
Month to date precipitation 5.30 2.82  
Year to date precipitation 36.01 32.48  
Snow  
Snow 0.00 in - - ()
Month to date snowfall 0.0  
Since 1 September snowfall 0.0  
Snow Depth 0.00 in    
Sea Level Pressure  
Sea Level Pressure 30.09 in    
Wind  
Wind Speed 4 mph (WSW)    
Max Wind Speed 12 mph    
Max Gust Speed 18 mph    
Visibility 10 miles    
Events Rain    
T = Trace of Precipitation, MM = Missing Value Source: NWS Daily Summary

Daily Weather History Graph

Daily Weather History Graph

Search for Another Location

Airport or City:

Trip Planner

Search our weather history database for the weather conditions in past years. The results will help you decide how hot, cold, wet, or windy it might be!

Date:

Astronomy

Sep. 28, 2012 Rise Set
Actual Time 7:17 AM EDT 7:11 PM EDT
Civil Twilight 6:51 AM EDT 7:37 PM EDT
Nautical Twilight 6:21 AM EDT 8:07 PM EDT
Astronomical Twilight 5:50 AM EDT 8:38 PM EDT
Moon 6:12 PM EDT (9/28) 5:47 AM EDT (9/28)
Length of Visible Light 12h 45m
Length of Day
11h 53m
Waxing Gibbous, 98% of the Moon is Illuminated
Sep 28
Waxing Gibbous
Sep 29
Full
Oct 8
Last Quarter
Oct 15
New
Oct 21
First Quarter

Hourly Weather History & Observations

Time (EDT) Temp. Dew Point Humidity Pressure Visibility Wind Dir Wind Speed Gust Speed Precip Events Conditions
12:51 AM 61.0 °F 59.0 °F 93% 30.11 in 10.0 mi Calm Calm - N/A   Mostly Cloudy
1:01 AM 60.8 °F 59.0 °F 94% 30.19 in 10.0 mi Calm Calm - N/A   Mostly Cloudy
1:51 AM 60.1 °F 59.0 °F 96% 30.11 in 10.0 mi South 3.5 mph - 0.00 in   Scattered Clouds
2:51 AM 61.0 °F 59.0 °F 93% 30.10 in 10.0 mi South 4.6 mph - N/A   Scattered Clouds
3:51 AM 60.1 °F 57.9 °F 93% 30.09 in 10.0 mi Calm Calm - N/A   Scattered Clouds
4:51 AM 61.0 °F 59.0 °F 93% 30.08 in 10.0 mi Calm Calm - N/A   Overcast
5:43 AM 60.8 °F 59.0 °F 94% 30.15 in 10.0 mi South 5.8 mph - N/A   Overcast
5:51 AM 61.0 °F 59.0 °F 93% 30.08 in 10.0 mi South 3.5 mph - N/A   Overcast
6:51 AM 61.0 °F 59.0 °F 93% 30.09 in 10.0 mi SSW 5.8 mph - N/A   Overcast
7:51 AM 61.0 °F 59.0 °F 93% 30.08 in 10.0 mi South 3.5 mph - 0.03 in   Mostly Cloudy
8:43 AM 62.6 °F 60.8 °F 94% 30.14 in 10.0 mi Calm Calm - N/A   Overcast
8:51 AM 62.1 °F 60.1 °F 93% 30.08 in 10.0 mi Calm Calm - N/A   Overcast
9:26 AM 62.6 °F 60.8 °F 94% 30.15 in 10.0 mi WSW 3.5 mph - 0.00 in Rain Light Rain
9:51 AM 62.1 °F 60.1 °F 93% 30.09 in 10.0 mi WSW 4.6 mph - 0.10 in Rain Rain
10:10 AM 62.6 °F 60.8 °F 94% 30.15 in 10.0 mi Calm Calm - 0.02 in   Overcast
10:45 AM 62.6 °F 60.8 °F 94% 30.15 in 10.0 mi Calm Calm - 0.16 in Rain Rain
10:51 AM 62.1 °F 60.1 °F 93% 30.10 in 10.0 mi SSW 5.8 mph - 0.17 in Rain Rain
10:58 AM 62.6 °F 60.8 °F 94% 30.16 in 10.0 mi West 5.8 mph - 0.03 in Rain Heavy Rain
11:12 AM 62.6 °F 60.8 °F 94% 30.16 in 10.0 mi SW 4.6 mph - 0.11 in Rain Heavy Rain
11:19 AM 62.6 °F 60.8 °F 94% 30.16 in 10.0 mi SSW 5.8 mph - 0.13 in Rain Light Rain
11:51 AM 62.1 °F 60.1 °F 93% 30.11 in 10.0 mi WSW 8.1 mph - 0.14 in Rain Light Rain
12:51 PM 62.1 °F 59.0 °F 90% 30.10 in 10.0 mi WSW 6.9 mph - 0.01 in Rain Light Rain
1:21 PM 62.6 °F 60.8 °F 94% 30.15 in 10.0 mi WSW 4.6 mph - 0.00 in Rain Light Rain
1:51 PM 63.0 °F 60.1 °F 90% 30.08 in 10.0 mi West 6.9 mph - 0.01 in Rain Light Rain
2:40 PM 62.6 °F 60.8 °F 94% 30.12 in 10.0 mi WSW 5.8 mph - 0.00 in Rain Light Rain
2:51 PM 63.0 °F 60.1 °F 90% 30.06 in 10.0 mi WSW 5.8 mph - 0.01 in Rain Light Rain
3:25 PM 62.6 °F 60.8 °F 94% 30.11 in 10.0 mi West 3.5 mph - 0.01 in Rain Light Rain
3:47 PM 62.6 °F 60.8 °F 94% 30.11 in 10.0 mi WSW 5.8 mph - 0.01 in Rain Light Rain
3:51 PM 63.0 °F 60.1 °F 90% 30.05 in 10.0 mi WSW 6.9 mph - 0.01 in Rain Light Rain
4:22 PM 62.6 °F 60.8 °F 94% 30.09 in 10.0 mi NNW 6.9 mph - 0.01 in Rain Light Rain
4:51 PM 62.1 °F 60.1 °F 93% 30.04 in 10.0 mi WNW 4.6 mph - 0.03 in Rain Rain
5:51 PM 62.1 °F 59.0 °F 90% 30.01 in 10.0 mi SW 3.5 mph - 0.00 in   Overcast
6:51 PM 62.1 °F 59.0 °F 90% 30.02 in 10.0 mi SW 6.9 mph - 0.00 in   Overcast
7:17 PM 62.6 °F 59.0 °F 88% 30.07 in 10.0 mi WSW 4.6 mph - N/A   Overcast
7:45 PM 60.8 °F 59.0 °F 94% 30.07 in 10.0 mi WSW 3.5 mph - N/A   Overcast
7:46 PM 61.0 °F 59.0 °F 93% 30.02 in 10.0 mi WSW 4.6 mph - N/A   Overcast
8:40 PM 60.8 °F 57.2 °F 88% 30.08 in 10.0 mi SW 6.9 mph - N/A   Overcast
8:51 PM 61.0 °F 57.9 °F 90% 30.02 in 10.0 mi WSW 5.8 mph - N/A   Overcast
9:03 PM 60.8 °F 57.2 °F 88% 30.08 in 10.0 mi WSW 4.6 mph - 0.00 in Rain Light Rain
9:22 PM 60.8 °F 59.0 °F 94% 30.08 in 10.0 mi WSW 3.5 mph - 0.00 in Rain Light Rain
9:47 PM 60.8 °F 59.0 °F 94% 30.08 in 10.0 mi NNW 4.6 mph - 0.02 in Rain Light Rain
9:51 PM 60.1 °F 59.0 °F 96% 30.03 in 10.0 mi NNW 3.5 mph - 0.02 in Rain Light Rain
10:30 PM 60.8 °F 57.2 °F 88% 30.08 in 10.0 mi North 3.5 mph - 0.01 in Rain Light Rain
10:51 PM 60.1 °F 57.9 °F 93% 30.03 in 10.0 mi North 4.6 mph - 0.03 in Rain Light Rain
11:09 PM 60.8 °F 57.2 °F 88% 30.08 in 10.0 mi NNW 4.6 mph - 0.02 in Rain Rain
11:51 PM 60.1 °F 57.9 °F 93% 30.04 in 10.0 mi Calm Calm - 0.08 in   Overcast